DP0GVN-13 Weather Reports


Display with metric or nautical units.
time (UTC)temp
F
wind
direction
speed
MPH
gust
MPH
rain 1hr
in
rain 24hr
in
rain mn
in
humidity
%
barometer
mb
20260902073012 -20 90 9.0 0.0 0.00 0.00 0.00 73 987.2
20260902070012 -20 101 8.0 0.0 0.00 0.00 0.00 73 987.2
20260902063012 -22 77 6.0 0.0 0.00 0.00 0.00 74 986.9
20260902060012 -20 93 8.0 0.0 0.00 0.00 0.00 75 987.0
20260902053012 -20 80 5.0 0.0 0.00 0.00 0.00 76 987.1
20260902050012 -18 73 8.0 0.0 0.00 0.00 0.00 74 987.0
20260902043012 -20 63 6.0 0.0 0.00 0.00 0.00 73 986.8
20260902040012 -22 68 7.0 0.0 0.00 0.00 0.00 76 986.7
20260902033012 -22 86 6.0 0.0 0.00 0.00 0.00 78 986.4
20260902030012 -22 97 4.0 0.0 0.00 0.00 0.00 79 986.3
20260902023012 -18 82 9.0 0.0 0.00 0.00 0.00 78 985.9
20260902020012 -18 98 8.0 0.0 0.00 0.00 0.00 76 986.0
20260902013012 -18 112 6.0 0.0 0.00 0.00 0.00 74 986.0
20260902010012 -18 93 9.0 0.0 0.00 0.00 0.00 78 985.6
20260902003012 -18 113 6.0 0.0 0.00 0.00 0.00 80 985.6
20260902000012 -13 120 4.0 0.0 0.00 0.00 0.00 75 985.5
20260901233012 -14 110 4.0 0.0 0.00 0.00 0.00 78 985.1
20260901230012 -14 106 9.0 0.0 0.00 0.00 0.00 77 984.8
20260901223012 -16 112 8.0 0.0 0.00 0.00 0.00 80 984.6
20260901220012 -14 104 8.0 0.0 0.00 0.00 0.00 77 984.3
20260901213012 -13 112 7.0 0.0 0.00 0.00 0.00 80 983.9
20260901210012 -11 71 11.0 0.0 0.00 0.00 0.00 77 983.5
20260901203012 -11 74 9.0 0.0 0.00 0.00 0.00 76 982.8
20260901200012 -9 76 10.0 0.0 0.00 0.00 0.00 77 982.5
20260901193012 -7 88 15.0 0.0 0.00 0.00 0.00 78 982.2
20260901190012 -7 91 18.0 0.0 0.00 0.00 0.00 78 981.5
20260901183012 -7 86 14.0 0.0 0.00 0.00 0.00 74 981.5
20260901180012 -9 63 13.0 0.0 0.00 0.00 0.00 81 981.0
20260901173012 -9 77 12.0 0.0 0.00 0.00 0.00 84 981.2
20260901170012 -9 74 7.0 0.0 0.00 0.00 0.00 85 981.0
20260901163012 -9 85 6.0 0.0 0.00 0.00 0.00 85 980.6
20260901160012 -5 90 14.0 0.0 0.00 0.00 0.00 83 980.1
20260901153012 -7 94 11.0 0.0 0.00 0.00 0.00 83 979.5
20260901150012 -7 106 9.0 0.0 0.00 0.00 0.00 86 979.5
20260901143012 -5 108 8.0 0.0 0.00 0.00 0.00 85 979.0
20260901140012 -5 126 7.0 0.0 0.00 0.00 0.00 87 978.4
20260901133012 -5 143 5.0 0.0 0.00 0.00 0.00 87 978.1
20260901130012 -5 132 6.0 0.0 0.00 0.00 0.00 85 977.7
20260901123012 -4 105 10.0 0.0 0.00 0.00 0.00 85 977.0
20260901120012 -4 86 18.0 0.0 0.00 0.00 0.00 83 976.2
20260901113012 -4 87 17.0 0.0 0.00 0.00 0.00 84 975.9
20260901110012 -4 82 17.0 0.0 0.00 0.00 0.00 84 975.6
20260901103012 -4 82 21.0 0.0 0.00 0.00 0.00 84 974.9
20260901100012 -4 89 20.0 0.0 0.00 0.00 0.00 84 974.4
20260901093012 -5 87 19.0 0.0 0.00 0.00 0.00 84 974.3
20260901090012 -5 88 19.0 0.0 0.00 0.00 0.00 83 974.0
20260901083012 -5 91 19.0 0.0 0.00 0.00 0.00 84 973.6
20260901080012 -5 88 17.0 0.0 0.00 0.00 0.00 82 973.5